GW2624 Weather Reports


time (UTC)temp
C
wind
direction
speed
KPH
gust
KPH
rain 1hr
cm
rain 24hr
cm
rain mn
cm
humidity
%
barometer
mb
20260831230904 22 129 3.2 9.7 0.00 0.00 0.00 49 1005.4
20260831230403 22 81 3.2 9.7 0.00 0.00 0.00 51 1005.2
20260831225905 22 134 3.2 12.9 0.00 0.00 0.00 54 1005.5
20260831224906 22 40 4.8 16.1 0.00 0.00 0.00 54 1005.6
20260831223905 24 143 8.0 29.0 0.00 0.00 0.00 47 1005.9
20260831223405 26 143 9.7 19.3 0.00 0.00 0.00 39 1005.6
20260831222905 27 140 8.0 16.1 0.00 0.00 0.00 36 1005.7
20260831222405 27 108 1.6 4.8 0.00 0.00 0.00 35 1005.2
20260831221905 27 330 1.6 4.8 0.00 0.00 0.00 35 1004.9
20260831221405 27 261 3.2 4.8 0.00 0.00 0.00 36 1004.9
20260831215405 27 59 3.2 4.8 0.00 0.00 0.00 35 1005.4
20260831214405 27 12 4.8 11.3 0.00 0.00 0.00 34 1005.2
20260831213905 27 19 3.2 11.3 0.00 0.00 0.00 35 1005.3
20260831211405 27 298 1.6 14.5 0.00 0.00 0.00 35 1005.4
20260831210405 27 130 4.8 20.9 0.00 0.00 0.00 34 1005.6
20260831203405 28 152 8.0 19.3 0.00 0.00 0.00 32 1005.8
20260831201405 28 162 4.8 22.5 0.00 0.00 0.00 31 1006.0
20260831200905 28 198 8.0 22.5 0.00 0.00 0.00 31 1006.1
20260831195905 28 220 3.2 8.0 0.00 0.00 0.00 32 1006.0
20260831195404 28 179 1.6 8.0 0.00 0.00 0.00 32 1006.0
20260831194905 28 172 3.2 8.0 0.00 0.00 0.00 31 1006.1
20260831194405 28 46 3.2 8.0 0.00 0.00 0.00 32 1006.2
20260831193906 28 214 3.2 4.8 0.00 0.00 0.00 32 1006.5
20260831192905 28 228 4.8 14.5 0.00 0.00 0.00 34 1006.6
20260831191905 27 231 1.6 11.3 0.00 0.00 0.00 34 1006.6
20260831191405 27 260 3.2 14.5 0.00 0.00 0.00 33 1006.6
20260831190905 27 210 4.8 14.5 0.00 0.00 0.00 33 1006.7
20260831190405 28 265 3.2 12.9 0.00 0.00 0.00 33 1006.8
20260831184905 28 204 3.2 8.0 0.00 0.00 0.00 33 1006.9
20260831183905 28 207 3.2 8.0 0.00 0.00 0.00 32 1006.9
20260831182905 28 97 1.6 8.0 0.00 0.00 0.00 31 1007.1
20260831181405 28 219 4.8 9.7 0.00 0.00 0.00 32 1007.4
20260831175404 28 281 1.6 9.7 0.00 0.00 0.00 33 1007.7
20260831174404 28 88 3.2 12.9 0.00 0.00 0.00 35 1007.6
20260831171905 26 236 3.2 11.3 0.00 0.00 0.00 36 1007.9
20260831171405 26 269 4.8 11.3 0.00 0.00 0.00 36 1007.9
20260831165905 25 84 3.2 4.8 0.00 0.00 0.00 36 1008.0
20260831164905 25 62 3.2 11.3 0.00 0.00 0.00 39 1008.1
20260831164405 24 82 3.2 11.3 0.00 0.00 0.00 39 1008.0
20260831163904 24 111 1.6 11.3 0.00 0.00 0.00 40 1008.1
20260831161905 23 16 3.2 11.3 0.00 0.00 0.00 43 1008.1
20260831161406 23 284 1.6 8.0 0.00 0.00 0.00 43 1008.1
20260831160905 23 307 1.6 8.0 0.00 0.00 0.00 43 1008.1
20260831155405 23 233 1.6 8.0 0.00 0.00 0.00 44 1008.2
20260831154905 23 2 3.2 12.9 0.00 0.00 0.00 44 1008.3
20260831154405 23 340 4.8 12.9 0.00 0.00 0.00 44 1008.4
20260831153905 22 317 3.2 12.9 0.00 0.00 0.00 46 1008.5
20260831153404 22 23 3.2 12.9 0.00 0.00 0.00 45 1008.6
20260831152905 22 273 3.2 12.9 0.00 0.00 0.00 48 1008.8
20260831152405 21 230 1.6 12.9 0.00 0.00 0.00 50 1009.0
20260831150905 20 65 3.2 4.8 0.00 0.00 0.00 52 1009.2
20260831150405 20 209 3.2 4.8 0.00 0.00 0.00 54 1009.3
20260831145405 20 303 1.6 4.8 0.00 0.00 0.00 55 1009.4
20260831143405 19 6 3.2 12.9 0.00 0.00 0.00 57 1009.6
20260831142406 19 311 3.2 12.9 0.00 0.00 0.00 58 1009.7
20260831141405 18 339 3.2 12.9 0.00 0.00 0.00 59 1009.7
20260831140904 18 13 1.6 4.8 0.00 0.00 0.00 60 1009.6
20260831133405 17 37 1.6 4.8 0.00 0.00 0.00 61 1009.9
20260831132904 17 355 0.0 4.8 0.00 0.00 0.00 61 1009.6
20260831132405 17 13 1.6 12.9 0.00 0.00 0.00 61 1009.5
20260831131904 17 0 1.6 12.9 0.00 0.00 0.00 61 1009.6
20260831131405 17 0 0.0 8.0 0.00 0.00 0.00 61 1009.5
20260831125405 17 0 0.0 3.2 0.00 0.00 0.00 59 1009.3
20260831124905 17 0 0.0 3.2 0.00 0.00 0.00 59 1009.2
20260831124404 17 0 0.0 4.8 0.00 0.00 0.00 59 1009.2
20260831123404 17 0 1.6 4.8 0.00 0.00 0.00 59 1009.0
20260831122905 17 0 1.6 4.8 0.00 0.00 0.00 59 1008.8
20260831122405 17 0 1.6 4.8 0.00 0.00 0.00 60 1008.8
20260831121405 17 0 1.6 4.8 0.00 0.00 0.00 61 1008.6
20260831120905 17 0 0.0 3.2 0.00 0.00 0.00 62 1008.7
20260831115905 16 0 1.6 8.0 0.00 0.00 0.00 63 1008.9
20260831115405 16 0 3.2 8.0 0.00 0.00 0.00 64 1008.7
20260831114405 16 0 0.0 3.2 0.00 0.00 0.00 65 1008.5
20260831112404 16 98 0.0 1.6 0.00 0.00 0.00 64 1007.9
20260831111905 16 98 0.0 1.6 0.00 0.00 0.00 62 1007.9
20260831111405 16 98 0.0 0.0 0.00 0.00 0.00 63 1007.8
20260831110905 16 98 0.0 0.0 0.00 0.00 0.00 62 1007.9
20260831110405 16 98 0.0 0.0 0.00 0.00 0.00 62 1008.1
20260831105905 16 98 0.0 0.0 0.00 0.00 0.00 62 1008.1
20260831105405 16 98 0.0 0.0 0.00 0.00 0.00 62 1008.1
20260831103904 16 98 0.0 0.0 0.00 0.00 0.00 62 1008.1
20260831101404 16 98 0.0 0.0 0.00 0.00 0.00 61 1008.1
20260831100405 17 98 0.0 0.0 0.00 0.00 0.00 61 1007.9
20260831095405 17 98 0.0 0.0 0.00 0.00 0.00 59 1007.8
20260831094905 17 98 0.0 0.0 0.00 0.00 0.00 59 1007.6
20260831091405 18 65 0.0 1.6 0.00 0.00 0.00 54 1007.5
20260831085405 18 50 1.6 4.8 0.00 0.00 0.00 53 1007.5
20260831084405 19 265 1.6 4.8 0.00 0.00 0.00 54 1007.6
20260831083905 19 301 0.0 1.6 0.00 0.00 0.00 53 1007.7
20260831082905 19 300 1.6 4.8 0.00 0.00 0.00 54 1007.7
20260831082404 19 28 0.0 4.8 0.00 0.00 0.00 53 1007.7
20260831080905 19 344 0.0 4.8 0.00 0.00 0.00 53 1007.7
20260831075905 19 48 3.2 4.8 0.00 0.00 0.00 53 1007.7
20260831075405 19 95 1.6 4.8 0.00 0.00 0.00 53 1007.8
20260831074905 19 15 1.6 4.8 0.00 0.00 0.00 53 1007.8
20260831074406 19 105 1.6 3.2 0.00 0.00 0.00 54 1007.8
20260831072904 18 121 1.6 3.2 0.00 0.00 0.00 54 1007.6
20260831072404 18 121 0.0 1.6 0.00 0.00 0.00 54 1007.7
20260831071405 18 113 0.0 1.6 0.00 0.00 0.00 53 1007.7
20260831070905 19 113 0.0 1.6 0.00 0.00 0.00 53 1007.7
20260831070405 19 113 0.0 1.6 0.00 0.00 0.00 53 1007.7
20260831065905 19 113 0.0 1.6 0.00 0.00 0.00 52 1007.8
20260831064905 19 59 0.0 4.8 0.00 0.00 0.00 51 1007.9
20260831064405 19 59 0.0 4.8 0.00 0.00 0.00 51 1007.8
20260831062405 18 328 1.6 4.8 0.00 0.00 0.00 54 1007.8
20260831061904 17 66 0.0 4.8 0.00 0.00 0.00 53 1007.8
20260831061404 17 304 3.2 4.8 0.00 0.00 0.00 55 1007.6
20260831060904 17 137 0.0 3.2 0.00 0.00 0.00 53 1007.0
20260831060405 17 137 0.0 1.6 0.00 0.00 0.00 53 1007.1
20260831055905 17 137 0.0 3.2 0.00 0.00 0.00 54 1007.0
20260831054904 18 137 1.6 4.8 0.00 0.00 0.00 54 1007.0
20260831053904 18 137 1.6 3.2 0.00 0.00 0.00 52 1007.0
20260831052905 18 137 0.0 1.6 0.00 0.00 0.00 51 1007.1
20260831052405 19 137 0.0 1.6 0.00 0.00 0.00 51 1007.1
20260831051904 19 137 0.0 1.6 0.00 0.00 0.00 50 1007.0
20260831051405 20 137 0.0 1.6 0.00 0.00 0.00 49 1007.0
20260831050404 20 137 0.0 3.2 0.00 0.00 0.00 48 1006.9
20260831045905 20 137 0.0 8.0 0.00 0.00 0.00 48 1006.8
20260831045405 20 145 0.0 8.0 0.00 0.00 0.00 48 1006.8
20260831044905 20 151 3.2 4.8 0.00 0.00 0.00 49 1006.8
20260831042905 20 134 0.0 0.0 0.00 0.00 0.00 49 1006.6
20260831041905 20 134 0.0 1.6 0.00 0.00 0.00 48 1006.7
20260831040405 20 134 1.6 4.8 0.00 0.00 0.00 48 1006.6
20260831035905 20 145 3.2 4.8 0.00 0.00 0.00 49 1006.7
20260831035405 21 146 1.6 3.2 0.00 0.00 0.00 48 1006.8
20260831034905 21 146 0.0 3.2 0.00 0.00 0.00 47 1006.6
20260831033904 21 146 0.0 3.2 0.00 0.00 0.00 46 1006.7
20260831031405 21 142 1.6 4.8 0.00 0.00 0.00 47 1006.2
20260831030405 21 142 0.0 4.8 0.00 0.00 0.00 47 1006.0
20260831025904 21 142 3.2 4.8 0.00 0.00 0.00 47 1006.0
20260831025405 21 143 3.2 4.8 0.00 0.00 0.00 48 1006.0
20260831023905 21 184 0.0 1.6 0.00 0.00 0.00 49 1005.7
20260831023405 21 184 0.0 1.6 0.00 0.00 0.00 48 1005.6
20260831022905 22 184 0.0 1.6 0.00 0.00 0.00 46 1005.6
20260831020905 23 184 0.0 0.0 0.00 0.00 0.00 41 1005.4
20260831015905 23 184 0.0 0.0 0.00 0.00 0.00 40 1005.1
20260831015404 24 184 0.0 0.0 0.00 0.00 0.00 40 1005.0
20260831013405 26 184 0.0 0.0 0.00 0.00 0.00 37 1004.8
20260831012904 26 184 0.0 0.0 0.00 0.00 0.00 36 1004.8
20260831012404 26 184 0.0 0.0 0.00 0.00 0.00 36 1004.7
20260831010905 27 184 0.0 1.6 0.00 0.00 0.00 33 1004.7
20260831010405 27 184 0.0 1.6 0.00 0.00 0.00 33 1004.6
20260831005404 27 184 0.0 4.8 0.00 0.00 0.00 32 1004.8
20260831003906 28 278 1.6 3.2 0.00 0.00 0.00 32 1004.8
20260831002905 28 319 0.0 4.8 0.00 0.00 0.00 32 1004.9
20260831001404 28 261 0.0 3.2 0.00 0.00 0.00 32 1005.0
20260831000905 28 261 1.6 3.2 0.00 0.00 0.00 30 1004.9
20260831000405 28 293 1.6 3.2 0.00 0.00 0.00 31 1004.9
20260830235404 28 121 0.0 3.2 0.00 0.00 0.00 32 1004.9
20260830233905 28 256 3.2 11.3 0.00 0.00 0.00 30 1004.8
20260830233405 28 212 3.2 11.3 0.00 0.00 0.00 32 1004.7